#timestamp,LO_Frequency,Hit 
1500494415.8,286045602.5,N
1500494435.7,286045600.1,N
1500494455.5,286045602.3,N
1500494475.4,286045602.2,N
1500494495.2,286045602.2,N
1500494515.0,286045602.1,N
1500494515.9,286045602.1,Y
1500494535.8,286047012.8,N
1500494555.6,286047012.9,N
1500494575.4,286047015.3,N
1500494595.3,286047014.5,N
1500494615.1,286047014.8,N
1500494635.9,286047013.4,N
1500494655.7,286047015.2,N
1500494675.5,286047015.2,N
1500494695.4,286047015.3,N
1500494715.2,286047015.3,N
1500494735.0,286047014.5,N
1500494735.9,286047014.5,N
1500494755.8,286047015.4,N
1500494775.6,286047014.4,N
1500494795.5,286047014.4,N
1500494815.3,286047015.1,N
1500494835.1,286047012.9,N
1500494855.9,286047012.6,N
1500494875.7,286047012.5,N
1500494895.5,286047014.5,N
1500494915.4,286047014.7,N
1500494935.2,286047016.8,N
1500494955.1,286047015.8,N
1500494956.0,286047015.8,N
1500494975.8,286047016.3,N
1500494995.6,286047014.2,N
1500495015.5,286047014.7,N
1500495035.3,286047014.8,N
1500495055.1,286047014.9,N
1500495075.9,286047014.7,N
1500495095.7,286047014.9,N
1500495115.6,286047014.8,N
1500495135.4,286047014.2,N
1500495155.2,286047017.1,N
1500495175.1,286047014.4,N
1500495176.0,286047014.4,N
1500495195.8,286047016.9,N
1500495215.6,286047018.8,N
1500495235.5,286047016.7,N
1500495255.3,286047014.8,N
1500495275.2,286047014.7,N
1500495295.9,286047014.8,N
1500495315.7,286047014.8,N
1500495335.6,286047014.3,N
1500495355.4,286047014.6,N
1500495375.2,286047014.9,N
1500495395.1,286047014.3,N
1500495396.0,286047014.3,N
1500495415.8,286047015.0,N
1500495435.7,286047015.0,N
1500495455.5,286047014.8,N
1500495475.3,286047015.4,N
1500495495.2,286047015.4,N
1500495515.0,286047015.1,N
1500495515.9,286047015.1,N
1500495535.7,286047014.6,N
1500495555.6,286047015.4,N
1500495575.4,286047014.8,N
1500495595.3,286047014.3,N
1500495615.1,286047014.6,N
1500495616.0,286047014.6,N
1500495635.8,286047016.7,N
1500495655.7,286047016.7,N
1500495675.5,286047016.6,N
1500495695.3,286047016.2,N
1500495715.2,286047014.2,N
1500495735.0,286047016.5,N
1500495735.9,286047016.5,N
1500495755.8,286047015.3,N
1500495775.6,286047016.0,N
1500495795.4,286047014.2,N
1500495815.3,286047015.2,N
1500495835.1,286047014.3,N
1500495855.8,286047014.4,N
1500495875.7,286047016.8,N
1500495895.5,286047017.0,N
1500495915.4,286047014.2,N
1500495935.2,286047016.0,N
1500495955.0,286047017.0,N
1500495955.9,286047017.0,N
1500495975.8,286047014.5,N
1500495995.6,286047017.2,N
1500496015.4,286047017.2,N
1500496035.3,286047017.0,N
1500496055.1,286047016.5,N
1500496075.9,286047016.5,N
1500496095.7,286047018.7,N
1500496115.5,286047018.5,N
1500496135.4,286047015.8,N
1500496155.2,286047018.8,N
1500496175.0,286047015.9,N
1500496175.9,286047015.9,N
1500496195.8,286047015.9,N
1500496215.6,286047016.1,N
1500496235.5,286047016.6,N
1500496255.3,286047014.5,N
1500496275.1,286047016.4,N
1500496295.9,286047014.4,N
1500496315.7,286047017.0,N
1500496335.5,286047016.3,N
1500496355.4,286047016.0,N
1500496375.2,286047016.4,N
1500496395.1,286047016.1,N
1500496396.0,286047016.1,N
1500496415.8,286047015.8,N
1500496435.6,286047018.8,N
1500496455.5,286047018.3,N
1500496475.3,286047018.3,N
1500496495.1,286047018.3,N
1500496515.9,286047018.7,N
1500496535.7,286047016.2,N
1500496555.6,286047015.9,N
1500496575.4,286047015.9,N
1500496595.2,286047016.2,N
1500496615.1,286047016.5,N
1500496616.0,286047016.5,N
1500496635.8,286047018.3,N
1500496655.6,286047017.9,N
1500496675.5,286047015.8,N
1500496695.3,286047015.8,N
1500496715.2,286047016.4,N
1500496735.9,286047016.2,N
1500496755.7,286047016.0,N
1500496775.6,286047016.2,N
1500496795.4,286047016.8,N
1500496815.2,286047018.6,N
1500496835.1,286047017.9,N
1500496836.0,286047017.9,N
1500496855.8,286047017.4,N
1500496875.7,286047017.9,N
1500496895.5,286047018.6,N
1500496915.3,286047020.4,N
1500496935.2,286047019.8,N
1500496955.0,286047020.0,N
1500496955.9,286047020.0,N
1500496975.8,286047019.5,N
1500496995.6,286047020.3,N
1500497015.4,286047017.5,N
1500497035.3,286047019.2,N
1500497055.1,286047019.2,N
1500497075.9,286047019.9,N
1500497095.7,286047017.4,N
1500497115.5,286047017.5,N
1500497135.4,286047017.7,N
1500497155.2,286047020.4,N
1500497175.0,286047018.0,N
1500497175.9,286047018.0,N
1500497195.8,286047018.4,N
1500497215.6,286047017.8,N
1500497235.5,286047019.6,N
1500497255.3,286047017.3,N
1500497275.1,286047017.7,N
1500497295.9,286047019.7,N
1500497315.7,286047020.1,N
1500497335.5,286047017.8,N
1500497355.4,286047017.8,N
1500497375.2,286047017.7,N
1500497395.1,286047018.0,N
1500497396.0,286047018.0,N
1500497415.8,286047017.3,N
1500497435.6,286047020.3,N
1500497455.5,286047019.8,N
1500497475.3,286047018.4,N
1500497495.1,286047018.6,N
1500497515.9,286047016.3,N
1500497535.7,286047017.7,N
1500497555.6,286047018.5,N
1500497575.4,286047017.9,N
1500497595.2,286047017.5,N
1500497615.1,286047017.7,N
1500497616.0,286047017.7,N
1500497635.8,286047019.1,N
1500497655.6,286047020.4,N
1500497675.5,286047019.9,N
1500497695.3,286047019.7,N
1500497715.2,286047017.7,N
1500497735.9,286047018.1,N
1500497755.7,286047020.1,N
1500497775.6,286047020.2,N
1500497795.4,286047017.5,N
1500497815.2,286047017.6,N
1500497835.1,286047020.2,N
1500497836.0,286047020.2,N
1500497855.8,286047019.7,N
1500497875.7,286047019.8,N
1500497895.5,286047019.0,N
1500497915.3,286047019.2,N
1500497935.2,286047017.3,N
1500497955.0,286047020.1,N
1500497955.9,286047020.1,N
1500497975.7,286047634.0,N
1500497995.6,286047019.3,N
